SXS9UZ UZTT-LTAI

Flight info

Callsign SXS9UZ
Flight time 5h 4m
Altitude 34000
Route DIBAD2A DIBAD N193 OGOLI T898 DARVA/N0465F340 B476 NEBIT/N0461F360 B476 METKA L88 RASAM N199 LUSAL M11 EDATA N161 INDUR UB374 ERZ UA4 SIV UA285 SELVI/N0457F370 UA285 MUT/N0459F360 UR55 TEWHE
Aircraft B38M/M-SDE1FGHILORVWXY/HB1

Departure

Time 2026-04-25 08:52
Airport Tashkent International Airport (UZTT)

Arrival

Time 2026-04-25 13:56
Airport Antalya International Airport (LTAI)
Time Latitude Longitude Altitude Speed Heading
2026-04-25 07:43 41.25995 69.26871 1425 ft 0 kts 335°
2026-04-25 08:40 41.26001 69.26868 1425 ft 1 kts 335°
2026-04-25 08:40 41.26018 69.26862 1425 ft 3 kts 358°
2026-04-25 08:40 41.26044 69.26883 1425 ft 5 kts 55°
2026-04-25 08:40 41.26065 69.26941 1425 ft 8 kts 66°
2026-04-25 08:41 41.26089 69.27015 1425 ft 7 kts 66°
2026-04-25 08:41 41.26109 69.27077 1425 ft 6 kts 67°
2026-04-25 08:41 41.26125 69.27123 1425 ft 5 kts 68°
2026-04-25 08:41 41.26119 69.27172 1425 ft 6 kts 130°
2026-04-25 08:42 41.26086 69.27213 1425 ft 7 kts 137°
2026-04-25 08:42 41.26069 69.27274 1425 ft 7 kts 85°
2026-04-25 08:42 41.26076 69.27351 1425 ft 9 kts 81°
2026-04-25 08:42 41.26087 69.27443 1425 ft 10 kts 81°
2026-04-25 08:43 41.26100 69.27550 1425 ft 12 kts 81°
2026-04-25 08:43 41.26114 69.27679 1425 ft 14 kts 82°
2026-04-25 08:43 41.26130 69.27832 1425 ft 15 kts 82°
2026-04-25 08:43 41.26146 69.27975 1425 ft 14 kts 82°
2026-04-25 08:44 41.26162 69.28114 1425 ft 13 kts 81°
2026-04-25 08:44 41.26181 69.28288 1425 ft 12 kts 81°
2026-04-25 08:44 41.26190 69.28362 1425 ft 12 kts 82°
2026-04-25 08:44 41.26191 69.28466 1425 ft 10 kts 94°
2026-04-25 08:45 41.26187 69.28563 1425 ft 10 kts 93°
2026-04-25 08:45 41.26182 69.28651 1425 ft 8 kts 94°
2026-04-25 08:45 41.26181 69.28727 1425 ft 7 kts 88°
2026-04-25 08:45 41.26184 69.28805 1425 ft 10 kts 87°
2026-04-25 08:46 41.26188 69.28921 1425 ft 15 kts 87°
2026-04-25 08:46 41.26194 69.29082 1425 ft 19 kts 88°
2026-04-25 08:46 41.26199 69.29255 1425 ft 16 kts 86°
2026-04-25 08:46 41.26205 69.29382 1425 ft 11 kts 87°
2026-04-25 08:47 41.26208 69.29468 1425 ft 7 kts 87°
2026-04-25 08:47 41.26210 69.29509 1425 ft 1 kts 87°
2026-04-25 08:47 41.26210 69.29527 1425 ft 2 kts 87°
2026-04-25 08:47 41.26212 69.29561 1425 ft 6 kts 87°
2026-04-25 08:48 41.26215 69.29651 1425 ft 13 kts 86°
2026-04-25 08:48 41.26221 69.29804 1425 ft 18 kts 86°
2026-04-25 08:48 41.26225 69.29948 1425 ft 11 kts 96°
2026-04-25 08:48 41.26184 69.30021 1425 ft 9 kts 140°
2026-04-25 08:49 41.26140 69.30068 1425 ft 7 kts 142°
2026-04-25 08:49 41.26100 69.30084 1425 ft 4 kts 190°
2026-04-25 08:49 41.26065 69.30054 1425 ft 7 kts 232°
2026-04-25 08:49 41.26055 69.30019 1425 ft 0 kts 261°
2026-04-25 08:50 41.26046 69.29936 1425 ft 31 kts 261°
2026-04-25 08:51 41.25984 69.29372 1425 ft 90 kts 261°
2026-04-25 08:51 41.25866 69.28312 1425 ft 141 kts 260°
2026-04-25 08:51 41.25709 69.26817 1499 ft 176 kts 259°
2026-04-25 08:51 41.25544 69.25176 1965 ft 182 kts 260°
2026-04-25 08:52 41.25382 69.23503 2592 ft 181 kts 259°
2026-04-25 08:52 41.25177 69.21783 2962 ft 197 kts 259°
2026-04-25 08:52 41.24947 69.19919 3180 ft 214 kts 259°
2026-04-25 08:52 41.24711 69.17890 3439 ft 227 kts 260°
2026-04-25 08:53 41.24479 69.15787 3885 ft 231 kts 260°
2026-04-25 08:53 41.24236 69.13567 4396 ft 235 kts 260°
2026-04-25 08:53 41.23978 69.11170 4965 ft 238 kts 259°
2026-04-25 08:53 41.23715 69.08764 5558 ft 239 kts 259°
2026-04-25 08:54 41.23456 69.06512 5931 ft 248 kts 259°
2026-04-25 08:54 41.23188 69.04246 6422 ft 249 kts 259°
2026-04-25 08:54 41.22914 69.01944 6873 ft 256 kts 259°
2026-04-25 08:54 41.22633 68.99519 7011 ft 273 kts 260°
2026-04-25 08:55 41.22348 68.97024 6997 ft 277 kts 259°
2026-04-25 08:55 41.22059 68.94473 6994 ft 276 kts 259°
2026-04-25 08:55 41.21767 68.91954 6994 ft 274 kts 259°
2026-04-25 08:55 41.21475 68.89460 6994 ft 274 kts 259°
2026-04-25 08:56 41.21269 68.86921 7295 ft 278 kts 267°
2026-04-25 08:56 41.21322 68.84387 7986 ft 278 kts 272°
2026-04-25 08:56 41.21508 68.81805 8562 ft 281 kts 275°
2026-04-25 08:56 41.21729 68.79218 9170 ft 283 kts 275°
2026-04-25 08:57 41.21958 68.76550 9727 ft 286 kts 274°
2026-04-25 08:57 41.22198 68.73637 10344 ft 289 kts 274°
2026-04-25 08:57 41.22431 68.70725 10435 ft 310 kts 274°
2026-04-25 08:57 41.22664 68.67804 10494 ft 329 kts 275°
2026-04-25 08:58 41.22910 68.64737 10873 ft 336 kts 275°
2026-04-25 08:58 41.23158 68.61636 11326 ft 340 kts 275°
2026-04-25 08:58 41.23408 68.58507 11870 ft 342 kts 275°
2026-04-25 08:58 41.23657 68.55364 12385 ft 344 kts 275°
2026-04-25 08:59 41.23905 68.52216 12903 ft 346 kts 275°
2026-04-25 08:59 41.24155 68.49033 13411 ft 348 kts 275°
2026-04-25 08:59 41.24407 68.45817 13909 ft 350 kts 275°
2026-04-25 08:59 41.24682 68.42297 14451 ft 352 kts 275°
2026-04-25 09:00 41.24959 68.38729 14983 ft 354 kts 275°
2026-04-25 09:00 41.25234 68.35177 15511 ft 356 kts 275°
2026-04-25 09:00 41.25508 68.31611 16026 ft 358 kts 274°
2026-04-25 09:00 41.25760 68.28320 16485 ft 360 kts 274°
2026-04-25 09:01 41.26011 68.25036 16929 ft 362 kts 274°
2026-04-25 09:01 41.26265 68.21698 17370 ft 364 kts 274°
2026-04-25 09:01 41.26520 68.18339 17802 ft 366 kts 274°
2026-04-25 09:01 41.26775 68.14967 18222 ft 368 kts 274°
2026-04-25 09:02 41.27030 68.11581 18637 ft 369 kts 274°
2026-04-25 09:02 41.27285 68.08189 19035 ft 371 kts 274°
2026-04-25 09:02 41.27559 68.04549 19460 ft 373 kts 274°
2026-04-25 09:02 41.27822 68.01096 19848 ft 375 kts 274°
2026-04-25 09:03 41.28116 67.97205 20083 ft 381 kts 274°
2026-04-25 09:03 41.28502 67.93305 20500 ft 381 kts 278°
2026-04-25 09:03 41.29024 67.89484 21027 ft 380 kts 279°
2026-04-25 09:03 41.29597 67.85599 21383 ft 383 kts 279°
2026-04-25 09:04 41.30181 67.81757 21785 ft 385 kts 279°
2026-04-25 09:04 41.30776 67.77876 22156 ft 386 kts 279°
2026-04-25 09:04 41.31374 67.73991 22520 ft 388 kts 279°
2026-04-25 09:04 41.31981 67.70064 22877 ft 390 kts 279°
2026-04-25 09:05 41.32585 67.66154 23225 ft 392 kts 280°
2026-04-25 09:05 41.33169 67.62372 23550 ft 393 kts 280°
2026-04-25 09:05 41.33721 67.58798 23852 ft 395 kts 280°
2026-04-25 09:05 41.34276 67.55197 24147 ft 396 kts 280°
2026-04-25 09:06 41.34832 67.51585 24436 ft 397 kts 280°
2026-04-25 09:06 41.35390 67.47961 24721 ft 399 kts 280°
2026-04-25 09:06 41.35944 67.44348 24995 ft 400 kts 280°
2026-04-25 09:06 41.36503 67.40702 25270 ft 401 kts 280°
2026-04-25 09:07 41.37056 67.37080 25530 ft 403 kts 280°
2026-04-25 09:07 41.37617 67.33405 25802 ft 404 kts 279°
2026-04-25 09:07 41.38180 67.29692 26064 ft 405 kts 279°
2026-04-25 09:07 41.38740 67.25999 26322 ft 406 kts 279°
2026-04-25 09:08 41.39343 67.22012 26589 ft 408 kts 279°
2026-04-25 09:08 41.39932 67.18107 26843 ft 409 kts 279°
2026-04-25 09:08 41.40485 67.14438 27054 ft 411 kts 279°
2026-04-25 09:08 41.41052 67.10667 27267 ft 413 kts 279°
2026-04-25 09:09 41.41617 67.06904 27481 ft 414 kts 279°
2026-04-25 09:09 41.42188 67.03092 27681 ft 416 kts 279°
2026-04-25 09:09 41.42814 66.98906 27902 ft 418 kts 279°
2026-04-25 09:09 41.43446 66.94672 28120 ft 420 kts 279°
2026-04-25 09:10 41.44081 66.90401 28353 ft 421 kts 279°
2026-04-25 09:10 41.44699 66.86234 28578 ft 422 kts 279°
2026-04-25 09:10 41.45262 66.82430 28771 ft 423 kts 279°
2026-04-25 09:10 41.45831 66.78577 28968 ft 424 kts 279°
2026-04-25 09:11 41.46970 66.70839 29343 ft 426 kts 279°
2026-04-25 09:11 41.47593 66.66519 29536 ft 427 kts 277°
2026-04-25 09:11 41.47933 66.62094 29736 ft 427 kts 272°
2026-04-25 09:12 41.48096 66.57684 29936 ft 427 kts 270°
2026-04-25 09:12 41.48175 66.53322 30101 ft 429 kts 270°
2026-04-25 09:12 41.48225 66.49119 30286 ft 429 kts 269°
2026-04-25 09:12 41.48264 66.44895 30452 ft 430 kts 269°
2026-04-25 09:13 41.48294 66.40786 30606 ft 431 kts 269°
2026-04-25 09:13 41.48320 66.36465 30770 ft 432 kts 269°
2026-04-25 09:13 41.48339 66.32211 30935 ft 433 kts 269°
2026-04-25 09:13 41.48353 66.27968 31099 ft 434 kts 268°
2026-04-25 09:14 41.48363 66.23917 31293 ft 433 kts 268°
2026-04-25 09:14 41.48371 66.19782 31501 ft 433 kts 268°
2026-04-25 09:14 41.48377 66.15332 31711 ft 432 kts 268°
2026-04-25 09:14 41.48380 66.11362 31911 ft 431 kts 268°
2026-04-25 09:15 41.48382 66.07330 32111 ft 431 kts 268°
2026-04-25 09:15 41.48382 66.03335 32301 ft 430 kts 268°
2026-04-25 09:15 41.48381 65.99269 32490 ft 429 kts 268°
2026-04-25 09:15 41.48378 65.94804 32693 ft 429 kts 268°
2026-04-25 09:16 41.48372 65.90403 32879 ft 428 kts 268°
2026-04-25 09:16 41.48365 65.85976 33069 ft 427 kts 268°
2026-04-25 09:16 41.48357 65.81747 33246 ft 427 kts 268°
2026-04-25 09:16 41.48346 65.77786 33410 ft 426 kts 268°
2026-04-25 09:17 41.48241 65.69954 33727 ft 424 kts 267°
2026-04-25 09:17 41.48183 65.65950 33879 ft 424 kts 268°
2026-04-25 09:17 41.48123 65.61539 34050 ft 423 kts 268°
2026-04-25 09:18 41.48066 65.57139 34220 ft 423 kts 268°
2026-04-25 09:18 41.48011 65.52804 34377 ft 423 kts 268°
2026-04-25 09:18 41.47958 65.48502 34531 ft 422 kts 268°
2026-04-25 09:18 41.47903 65.44112 34687 ft 422 kts 268°
2026-04-25 09:19 41.47851 65.39940 34834 ft 421 kts 268°
2026-04-25 09:19 41.47800 65.35960 34958 ft 421 kts 268°
2026-04-25 09:19 41.47743 65.31602 35111 ft 420 kts 267°
2026-04-25 09:19 41.47684 65.27312 35260 ft 420 kts 267°
2026-04-25 09:20 41.47624 65.23010 35405 ft 420 kts 267°
2026-04-25 09:20 41.47562 65.18684 35547 ft 419 kts 267°
2026-04-25 09:20 41.47500 65.14349 35691 ft 419 kts 267°
2026-04-25 09:20 41.47440 65.10252 35826 ft 418 kts 267°
2026-04-25 09:21 41.47376 65.05990 35915 ft 419 kts 267°
2026-04-25 09:21 41.47245 64.97558 35911 ft 418 kts 268°
2026-04-25 09:22 41.47111 64.89305 35912 ft 413 kts 268°
2026-04-25 09:22 41.46975 64.81266 35912 ft 412 kts 268°
2026-04-25 09:23 41.46832 64.73185 35912 ft 412 kts 268°
2026-04-25 09:23 41.46688 64.65318 35912 ft 413 kts 269°
2026-04-25 09:24 41.46538 64.57385 35912 ft 413 kts 269°
2026-04-25 09:24 41.46371 64.48895 35912 ft 413 kts 269°
2026-04-25 09:25 41.46202 64.40615 35912 ft 412 kts 269°
2026-04-25 09:25 41.46022 64.32147 35912 ft 413 kts 268°
2026-04-25 09:26 41.45836 64.23859 35912 ft 413 kts 268°
2026-04-25 09:26 41.45651 64.15777 35911 ft 412 kts 268°
2026-04-25 09:27 41.45462 64.07678 35912 ft 413 kts 268°
2026-04-25 09:27 41.45277 64.00008 35912 ft 413 kts 268°
2026-04-25 09:28 41.45088 63.92308 35912 ft 413 kts 268°
2026-04-25 09:28 41.44891 63.84544 35912 ft 413 kts 268°
2026-04-25 09:29 41.44679 63.76387 35918 ft 412 kts 268°
2026-04-25 09:29 41.44468 63.68481 35926 ft 412 kts 268°
2026-04-25 09:30 41.44181 63.60395 35936 ft 413 kts 267°
2026-04-25 09:30 41.43857 63.52555 35939 ft 413 kts 267°
2026-04-25 09:31 41.43570 63.44612 35939 ft 413 kts 268°
2026-04-25 09:31 41.43290 63.36302 35939 ft 413 kts 268°
2026-04-25 09:32 41.43021 63.28244 35938 ft 413 kts 267°
2026-04-25 09:32 41.42765 63.20610 35938 ft 413 kts 267°
2026-04-25 09:33 41.42501 63.12768 35939 ft 413 kts 267°
2026-04-25 09:33 41.42222 63.04513 35938 ft 411 kts 267°
2026-04-25 09:34 41.41937 62.96256 35938 ft 409 kts 268°
2026-04-25 09:34 41.41653 62.88334 35937 ft 404 kts 268°
2026-04-25 09:35 41.41387 62.80911 35943 ft 404 kts 268°
2026-04-25 09:35 41.41118 62.73385 35941 ft 407 kts 268°
2026-04-25 09:36 41.40844 62.65844 35940 ft 407 kts 268°
2026-04-25 09:36 41.40546 62.58194 35936 ft 406 kts 269°
2026-04-25 09:37 41.40224 62.50119 35940 ft 405 kts 268°
2026-04-25 09:37 41.39876 62.41975 35940 ft 405 kts 268°
2026-04-25 09:38 41.39552 62.33919 35939 ft 405 kts 268°
2026-04-25 09:38 41.39233 62.25799 35940 ft 404 kts 268°
2026-04-25 09:39 41.38919 62.18043 35941 ft 407 kts 268°
2026-04-25 09:39 41.38623 62.10537 35938 ft 409 kts 268°
2026-04-25 09:40 41.38174 61.99221 35936 ft 406 kts 268°
2026-04-25 09:40 41.37874 61.91687 35939 ft 406 kts 269°
2026-04-25 09:41 41.37568 61.84188 35941 ft 405 kts 268°
2026-04-25 09:41 41.37255 61.76722 35938 ft 403 kts 268°
2026-04-25 09:42 41.36931 61.68848 35941 ft 405 kts 268°
2026-04-25 09:42 41.36589 61.60794 35941 ft 408 kts 268°
2026-04-25 09:43 41.36252 61.53128 35937 ft 407 kts 268°
2026-04-25 09:43 41.35917 61.45649 35938 ft 407 kts 268°
2026-04-25 09:44 41.35565 61.38132 35938 ft 406 kts 267°
2026-04-25 09:44 41.35171 61.30668 35938 ft 402 kts 267°
2026-04-25 09:45 41.34802 61.23212 35941 ft 405 kts 268°
2026-04-25 09:45 41.34436 61.15722 35939 ft 408 kts 267°
2026-04-25 09:46 41.34076 61.08215 35938 ft 403 kts 268°
2026-04-25 09:46 41.33724 61.00872 35939 ft 399 kts 267°
2026-04-25 09:47 41.33359 60.93359 35940 ft 397 kts 267°
2026-04-25 09:47 41.32975 60.85574 35940 ft 396 kts 267°
2026-04-25 09:48 41.32592 60.77835 35940 ft 398 kts 267°
2026-04-25 09:48 41.32219 60.70470 35938 ft 399 kts 267°
2026-04-25 09:49 41.31847 60.63063 35938 ft 398 kts 268°
2026-04-25 09:49 41.31430 60.55062 35940 ft 397 kts 268°
2026-04-25 09:50 41.31017 60.47172 35940 ft 398 kts 268°
2026-04-25 09:50 41.30995 60.39801 35940 ft 399 kts 273°
2026-04-25 09:51 41.31263 60.32436 35938 ft 400 kts 274°
2026-04-25 09:51 41.31601 60.25052 35937 ft 398 kts 274°
2026-04-25 09:52 41.31943 60.17740 35939 ft 396 kts 274°
2026-04-25 09:52 41.32292 60.10411 35940 ft 396 kts 274°
2026-04-25 09:53 41.32651 60.03115 35938 ft 397 kts 274°
2026-04-25 09:53 41.33001 59.95795 35939 ft 397 kts 274°
2026-04-25 09:54 41.33343 59.88457 35939 ft 397 kts 274°
2026-04-25 09:54 41.33679 59.81162 35937 ft 396 kts 273°
2026-04-25 09:55 41.34054 59.73313 35940 ft 397 kts 274°
2026-04-25 09:55 41.34052 59.65343 35940 ft 400 kts 267°
2026-04-25 09:56 41.33481 59.57841 35937 ft 397 kts 265°
2026-04-25 09:56 41.32831 59.50577 35939 ft 394 kts 265°
2026-04-25 09:57 41.32168 59.43332 35940 ft 398 kts 265°
2026-04-25 09:57 41.31459 59.35739 35940 ft 399 kts 264°
2026-04-25 09:58 41.30719 59.27898 35939 ft 402 kts 264°
2026-04-25 09:58 41.30018 59.20532 35937 ft 400 kts 264°
2026-04-25 09:59 41.29313 59.13223 35937 ft 396 kts 264°
2026-04-25 09:59 41.28557 59.05424 35940 ft 396 kts 264°
2026-04-25 10:00 41.27803 58.97642 35940 ft 399 kts 263°
2026-04-25 10:00 41.27085 58.90313 35938 ft 400 kts 263°
2026-04-25 10:01 41.26369 58.83001 35938 ft 397 kts 263°
2026-04-25 10:01 41.25642 58.75690 35939 ft 398 kts 263°
2026-04-25 10:02 41.24916 58.68394 35939 ft 398 kts 263°
2026-04-25 10:02 41.24191 58.61144 35940 ft 398 kts 263°
2026-04-25 10:03 41.23454 58.53851 35941 ft 400 kts 263°
2026-04-25 10:03 41.22712 58.46548 35938 ft 400 kts 263°
2026-04-25 10:04 41.21960 58.39205 35938 ft 401 kts 263°
2026-04-25 10:04 41.21206 58.31889 35938 ft 400 kts 262°
2026-04-25 10:05 41.20441 58.24572 35936 ft 397 kts 262°
2026-04-25 10:05 41.19680 58.17318 35940 ft 398 kts 262°
2026-04-25 10:06 41.18877 58.09698 35940 ft 400 kts 262°
2026-04-25 10:06 41.17968 58.01670 35938 ft 401 kts 262°
2026-04-25 10:07 41.17106 57.94074 35938 ft 399 kts 262°
2026-04-25 10:07 41.16302 57.86812 35938 ft 399 kts 262°
2026-04-25 10:08 41.15499 57.79469 35939 ft 399 kts 262°
2026-04-25 10:08 41.14706 57.72222 35940 ft 400 kts 262°
2026-04-25 10:09 41.13908 57.64903 35939 ft 400 kts 262°
2026-04-25 10:09 41.13112 57.57634 35939 ft 400 kts 262°
2026-04-25 10:10 41.12291 57.50203 35938 ft 398 kts 262°
2026-04-25 10:10 41.11402 57.42159 35941 ft 399 kts 262°
2026-04-25 10:11 41.10527 57.34335 35940 ft 400 kts 262°
2026-04-25 10:11 41.09649 57.26573 35939 ft 400 kts 262°
2026-04-25 10:12 41.08791 57.19046 35939 ft 399 kts 262°
2026-04-25 10:13 41.07449 57.07268 35940 ft 400 kts 262°
2026-04-25 10:13 41.06562 56.99551 35939 ft 399 kts 262°
2026-04-25 10:14 41.05660 56.91724 35938 ft 398 kts 262°
2026-04-25 10:14 41.04758 56.83969 35938 ft 396 kts 262°
2026-04-25 10:15 41.03915 56.76760 35912 ft 397 kts 262°
2026-04-25 10:15 41.03062 56.69509 35913 ft 399 kts 262°
2026-04-25 10:16 41.02107 56.61415 35911 ft 399 kts 262°
2026-04-25 10:16 41.01179 56.53397 35911 ft 399 kts 264°
2026-04-25 10:17 41.00790 56.46056 35912 ft 399 kts 268°
2026-04-25 10:17 41.00618 56.38725 35913 ft 399 kts 269°
2026-04-25 10:18 41.00499 56.31401 35944 ft 399 kts 269°
2026-04-25 10:18 41.00390 56.24057 35980 ft 399 kts 269°
2026-04-25 10:19 41.00289 56.16702 36017 ft 400 kts 268°
2026-04-25 10:19 41.00189 56.09345 36039 ft 400 kts 269°
2026-04-25 10:20 41.00086 56.01797 36054 ft 399 kts 269°
2026-04-25 10:20 40.99975 55.93707 36068 ft 399 kts 269°
2026-04-25 10:21 40.99857 55.85628 36074 ft 399 kts 269°
2026-04-25 10:21 40.99730 55.77503 36075 ft 400 kts 269°
2026-04-25 10:22 40.99593 55.70062 36074 ft 400 kts 269°
2026-04-25 10:22 40.99466 55.62703 36073 ft 399 kts 269°
2026-04-25 10:23 40.99328 55.54596 36073 ft 400 kts 269°
2026-04-25 10:23 40.99190 55.46344 36074 ft 399 kts 269°
2026-04-25 10:24 40.99050 55.38220 36074 ft 399 kts 269°
2026-04-25 10:24 40.98902 55.29990 36074 ft 400 kts 268°
2026-04-25 10:25 40.98759 55.22474 36074 ft 400 kts 268°
2026-04-25 10:25 40.98610 55.14664 36074 ft 401 kts 268°
2026-04-25 10:26 40.98449 55.06509 36073 ft 400 kts 268°
2026-04-25 10:26 40.98289 54.98695 36074 ft 401 kts 268°
2026-04-25 10:27 40.98129 54.91100 36074 ft 402 kts 268°
2026-04-25 10:27 40.97931 54.82856 36075 ft 403 kts 267°
2026-04-25 10:28 40.97707 54.74790 36073 ft 402 kts 268°
2026-04-25 10:28 40.97496 54.66831 36074 ft 400 kts 268°
2026-04-25 10:29 40.97308 54.59469 36074 ft 402 kts 268°
2026-04-25 10:29 40.97118 54.52051 36074 ft 402 kts 268°
2026-04-25 10:30 40.96925 54.44660 36075 ft 402 kts 268°
2026-04-25 10:30 40.96728 54.37271 36074 ft 402 kts 268°
2026-04-25 10:31 40.96514 54.29636 36074 ft 404 kts 267°
2026-04-25 10:31 40.96277 54.21345 36073 ft 404 kts 267°
2026-04-25 10:32 40.96050 54.13496 36074 ft 404 kts 267°
2026-04-25 10:32 40.95837 54.06059 36072 ft 404 kts 267°
2026-04-25 10:33 40.95619 53.98640 36073 ft 403 kts 267°
2026-04-25 10:33 40.95395 53.91236 36067 ft 404 kts 267°
2026-04-25 10:34 40.95161 53.83788 36058 ft 404 kts 267°
2026-04-25 10:34 40.94913 53.75993 36048 ft 403 kts 267°
2026-04-25 10:35 40.94672 53.68571 36047 ft 402 kts 267°
2026-04-25 10:35 40.94429 53.61198 36048 ft 403 kts 267°
2026-04-25 10:36 40.94177 53.53784 36046 ft 402 kts 266°
2026-04-25 10:36 40.93920 53.46411 36046 ft 401 kts 267°
2026-04-25 10:37 40.93665 53.39068 36047 ft 401 kts 267°
2026-04-25 10:37 40.93398 53.31656 36048 ft 404 kts 266°
2026-04-25 10:38 40.93124 53.24261 36047 ft 406 kts 266°
2026-04-25 10:38 40.92849 53.16770 36046 ft 404 kts 266°
2026-04-25 10:39 40.92561 53.09397 36046 ft 405 kts 266°
2026-04-25 10:39 40.92184 53.01968 36047 ft 404 kts 266°
2026-04-25 10:40 40.91839 52.94514 36046 ft 403 kts 266°
2026-04-25 10:40 40.91518 52.87163 36047 ft 404 kts 266°
2026-04-25 10:41 40.91196 52.79718 36047 ft 408 kts 266°
2026-04-25 10:41 40.90875 52.72161 36047 ft 408 kts 266°
2026-04-25 10:42 40.90555 52.64704 36047 ft 407 kts 265°
2026-04-25 10:42 40.89727 52.57140 36046 ft 406 kts 259°
2026-04-25 10:43 40.88495 52.49005 36047 ft 406 kts 259°
2026-04-25 10:43 40.87254 52.41008 36048 ft 407 kts 259°
2026-04-25 10:44 40.86111 52.33705 36046 ft 407 kts 258°
2026-04-25 10:44 40.84951 52.26356 36048 ft 409 kts 258°
2026-04-25 10:45 40.83790 52.19026 36047 ft 410 kts 258°
2026-04-25 10:45 40.82520 52.11031 36075 ft 407 kts 258°
2026-04-25 10:46 40.81217 52.02837 36075 ft 409 kts 258°
2026-04-25 10:46 40.79977 51.95105 36074 ft 407 kts 258°
2026-04-25 10:47 40.78708 51.87244 36074 ft 407 kts 258°
2026-04-25 10:47 40.77527 51.79944 36074 ft 406 kts 258°
2026-04-25 10:48 40.76352 51.72721 36074 ft 405 kts 258°
2026-04-25 10:48 40.75165 51.65436 36075 ft 406 kts 258°
2026-04-25 10:49 40.73970 51.58142 36074 ft 407 kts 258°
2026-04-25 10:49 40.72931 51.50844 36074 ft 409 kts 263°
2026-04-25 10:50 40.72403 51.43367 36074 ft 410 kts 266°
2026-04-25 10:50 40.72026 51.35870 36072 ft 407 kts 266°
2026-04-25 10:51 40.71699 51.28457 36074 ft 406 kts 266°
2026-04-25 10:51 40.71383 51.21013 36073 ft 407 kts 266°
2026-04-25 10:52 40.71035 51.12761 36072 ft 408 kts 266°
2026-04-25 10:52 40.70686 51.04446 36074 ft 406 kts 266°
2026-04-25 10:53 40.70363 50.96726 36073 ft 402 kts 266°
2026-04-25 10:53 40.70049 50.89359 36074 ft 400 kts 266°
2026-04-25 10:54 40.69734 50.82043 36072 ft 398 kts 267°
2026-04-25 10:54 40.69419 50.74749 36074 ft 398 kts 267°
2026-04-25 10:55 40.69100 50.67469 36074 ft 400 kts 267°
2026-04-25 10:55 40.68771 50.60170 36074 ft 399 kts 267°
2026-04-25 10:56 40.68433 50.52886 36074 ft 398 kts 267°
2026-04-25 10:56 40.68097 50.45596 36075 ft 399 kts 267°
2026-04-25 10:57 40.67727 50.38305 36074 ft 400 kts 266°
2026-04-25 10:57 40.67331 50.30964 36074 ft 401 kts 266°
2026-04-25 10:58 40.66951 50.23644 36073 ft 401 kts 266°
2026-04-25 10:58 40.66584 50.16340 36072 ft 398 kts 266°
2026-04-25 10:59 40.66195 50.08773 36068 ft 401 kts 266°
2026-04-25 10:59 40.65819 50.01403 36058 ft 402 kts 267°
2026-04-25 11:00 40.65452 49.94091 36050 ft 399 kts 266°
2026-04-25 11:00 40.65058 49.86412 36048 ft 400 kts 266°
2026-04-25 11:01 40.64643 49.78490 36046 ft 400 kts 266°
2026-04-25 11:01 40.64245 49.70893 36047 ft 400 kts 266°
2026-04-25 11:02 40.63847 49.63570 36046 ft 398 kts 266°
2026-04-25 11:02 40.63446 49.56313 36047 ft 398 kts 266°
2026-04-25 11:03 40.63031 49.49034 36047 ft 400 kts 266°
2026-04-25 11:03 40.62638 49.41744 36046 ft 400 kts 266°
2026-04-25 11:04 40.62238 49.34471 36047 ft 399 kts 266°
2026-04-25 11:04 40.61814 49.27156 36046 ft 400 kts 265°
2026-04-25 11:05 40.61393 49.19890 36048 ft 398 kts 265°
2026-04-25 11:05 40.61113 49.12224 36047 ft 396 kts 269°
2026-04-25 11:06 40.60965 49.04239 36046 ft 395 kts 269°
2026-04-25 11:06 40.60825 48.96767 36047 ft 395 kts 269°
2026-04-25 11:07 40.60691 48.89545 36045 ft 394 kts 269°
2026-04-25 11:07 40.60545 48.82129 36043 ft 391 kts 269°
2026-04-25 11:08 40.60389 48.74456 36042 ft 393 kts 269°
2026-04-25 11:08 40.60224 48.66785 36037 ft 394 kts 269°
2026-04-25 11:09 40.60060 48.59158 36030 ft 394 kts 269°
2026-04-25 11:09 40.59900 48.51951 36025 ft 394 kts 269°
2026-04-25 11:10 40.59737 48.44729 36020 ft 394 kts 269°
2026-04-25 11:10 40.59558 48.37320 36019 ft 395 kts 269°
2026-04-25 11:11 40.59370 48.29541 36019 ft 395 kts 269°
2026-04-25 11:11 40.59163 48.21780 36020 ft 395 kts 269°
2026-04-25 11:12 40.58943 48.13881 36019 ft 396 kts 268°
2026-04-25 11:12 40.58698 48.06282 36020 ft 396 kts 268°
2026-04-25 11:13 40.58477 47.99043 36020 ft 394 kts 268°
2026-04-25 11:13 40.58457 47.91853 36021 ft 393 kts 272°
2026-04-25 11:14 40.58697 47.84154 36019 ft 394 kts 273°
2026-04-25 11:14 40.58951 47.76464 36020 ft 395 kts 273°
2026-04-25 11:15 40.59193 47.69286 36021 ft 395 kts 272°
2026-04-25 11:15 40.59424 47.62093 36019 ft 394 kts 273°
2026-04-25 11:16 40.59759 47.51308 36021 ft 391 kts 272°
2026-04-25 11:16 40.59984 47.44192 36019 ft 392 kts 273°
2026-04-25 11:17 40.60202 47.37000 36021 ft 394 kts 272°
2026-04-25 11:17 40.60408 47.29773 36020 ft 394 kts 272°
2026-04-25 11:18 40.60572 47.22572 36020 ft 395 kts 269°
2026-04-25 11:18 40.60145 47.15405 36021 ft 395 kts 263°
2026-04-25 11:19 40.59290 47.08291 36020 ft 396 kts 262°
2026-04-25 11:19 40.58360 47.01123 36019 ft 397 kts 262°
2026-04-25 11:20 40.57416 46.93967 36017 ft 395 kts 261°
2026-04-25 11:20 40.56472 46.86897 36021 ft 395 kts 261°
2026-04-25 11:21 40.55509 46.79763 36020 ft 397 kts 261°
2026-04-25 11:21 40.54541 46.72617 36020 ft 396 kts 261°
2026-04-25 11:22 40.53574 46.65526 36020 ft 396 kts 261°
2026-04-25 11:22 40.52601 46.58413 36019 ft 396 kts 261°
2026-04-25 11:23 40.51624 46.51301 36023 ft 395 kts 261°
2026-04-25 11:23 40.50642 46.44198 36031 ft 396 kts 261°
2026-04-25 11:24 40.49657 46.37075 36040 ft 397 kts 261°
2026-04-25 11:24 40.48663 46.29955 36046 ft 397 kts 260°
2026-04-25 11:25 40.47660 46.22852 36047 ft 395 kts 260°
2026-04-25 11:25 40.46654 46.15741 36047 ft 397 kts 260°
2026-04-25 11:26 40.45644 46.08615 36047 ft 395 kts 260°
2026-04-25 11:26 40.44637 46.01528 36047 ft 397 kts 260°
2026-04-25 11:27 40.43619 45.94392 36046 ft 396 kts 260°
2026-04-25 11:27 40.42776 45.88498 36046 ft 396 kts 260°
2026-04-25 11:28 40.41586 45.80221 36049 ft 396 kts 260°
2026-04-25 11:28 40.40561 45.73149 36058 ft 397 kts 260°
2026-04-25 11:29 40.39534 45.66077 36064 ft 395 kts 260°
2026-04-25 11:29 40.38509 45.59018 36069 ft 393 kts 260°
2026-04-25 11:30 40.37511 45.51927 36077 ft 396 kts 261°
2026-04-25 11:30 40.36533 45.44818 36085 ft 398 kts 261°
2026-04-25 11:31 40.35564 45.37722 36094 ft 396 kts 261°
2026-04-25 11:31 40.34596 45.30630 36101 ft 395 kts 260°
2026-04-25 11:32 40.33624 45.23551 36101 ft 395 kts 260°
2026-04-25 11:32 40.32650 45.16475 36102 ft 396 kts 260°
2026-04-25 11:33 40.31668 45.09348 36101 ft 396 kts 260°
2026-04-25 11:33 40.30690 45.02271 36100 ft 394 kts 259°
2026-04-25 11:34 40.29726 44.95297 36102 ft 391 kts 259°
2026-04-25 11:34 40.28747 44.88292 36102 ft 392 kts 259°
2026-04-25 11:35 40.27758 44.81222 36103 ft 395 kts 259°
2026-04-25 11:35 40.26775 44.74178 36097 ft 392 kts 259°
2026-04-25 11:36 40.25783 44.67165 36101 ft 393 kts 259°
2026-04-25 11:36 40.24783 44.60142 36102 ft 393 kts 259°
2026-04-25 11:37 40.23780 44.53125 36101 ft 393 kts 259°
2026-04-25 11:37 40.22787 44.46121 36102 ft 394 kts 259°
2026-04-25 11:38 40.21810 44.39070 36099 ft 391 kts 259°
2026-04-25 11:38 40.20851 44.32117 36103 ft 389 kts 258°
2026-04-25 11:39 40.19883 44.25109 36102 ft 394 kts 258°
2026-04-25 11:39 40.18897 44.18050 36102 ft 396 kts 259°
2026-04-25 11:40 40.17916 44.10962 36098 ft 394 kts 259°
2026-04-25 11:40 40.16945 44.03975 36101 ft 391 kts 259°
2026-04-25 11:41 40.15869 43.96315 36101 ft 392 kts 258°
2026-04-25 11:41 40.14771 43.88517 36101 ft 396 kts 259°
2026-04-25 11:42 40.13753 43.81312 36099 ft 393 kts 258°
2026-04-25 11:42 40.12768 43.74367 36102 ft 389 kts 259°
2026-04-25 11:43 40.11821 43.67315 36100 ft 392 kts 261°
2026-04-25 11:43 40.11303 43.60275 36101 ft 391 kts 264°
2026-04-25 11:44 40.10901 43.53187 36104 ft 392 kts 264°
2026-04-25 11:44 40.10498 43.46065 36100 ft 394 kts 265°
2026-04-25 11:45 40.10110 43.38952 36104 ft 391 kts 265°
2026-04-25 11:45 40.09719 43.31884 36112 ft 392 kts 264°
2026-04-25 11:46 40.09307 43.24707 36122 ft 395 kts 263°
2026-04-25 11:46 40.08897 43.17526 36127 ft 395 kts 264°
2026-04-25 11:47 40.08493 43.10401 36127 ft 393 kts 263°
2026-04-25 11:47 40.08065 43.02877 36130 ft 397 kts 263°
2026-04-25 11:48 40.07636 42.95458 36127 ft 403 kts 263°
2026-04-25 11:48 40.07184 42.87767 36129 ft 408 kts 263°
2026-04-25 11:49 40.06726 42.80160 36126 ft 401 kts 263°
2026-04-25 11:49 40.06284 42.72766 36128 ft 400 kts 263°
2026-04-25 11:50 40.05849 42.65518 36128 ft 400 kts 263°
2026-04-25 11:50 40.05404 42.58254 36127 ft 402 kts 263°
2026-04-25 11:51 40.04947 42.50611 36129 ft 402 kts 263°
2026-04-25 11:51 40.04496 42.43260 36128 ft 402 kts 263°
2026-04-25 11:52 40.03999 42.36006 36129 ft 404 kts 262°
2026-04-25 11:52 40.03481 42.28706 36124 ft 403 kts 262°
2026-04-25 11:53 40.02970 42.21419 36127 ft 401 kts 262°
2026-04-25 11:53 40.02466 42.14129 36131 ft 401 kts 262°
2026-04-25 11:54 40.01953 42.06806 36126 ft 404 kts 262°
2026-04-25 11:55 40.01193 41.95903 36126 ft 400 kts 263°
2026-04-25 11:55 40.00680 41.88640 36119 ft 401 kts 262°
2026-04-25 11:56 40.00157 41.81409 36110 ft 403 kts 262°
2026-04-25 11:56 39.99636 41.74148 36100 ft 402 kts 262°
2026-04-25 11:57 39.99098 41.66885 36100 ft 402 kts 262°
2026-04-25 11:57 39.98569 41.59666 36100 ft 401 kts 262°
2026-04-25 11:58 39.98041 41.52403 36102 ft 403 kts 262°
2026-04-25 11:58 39.97507 41.45139 36099 ft 403 kts 262°
2026-04-25 11:59 39.96979 41.37847 36101 ft 402 kts 262°
2026-04-25 11:59 39.96445 41.30575 36100 ft 402 kts 261°
2026-04-25 12:00 39.95763 41.19647 36103 ft 407 kts 266°
2026-04-25 12:01 39.95697 41.08267 36099 ft 404 kts 266°
2026-04-25 12:01 39.95697 41.00555 36102 ft 405 kts 267°
2026-04-25 12:02 39.95685 40.89459 36101 ft 405 kts 266°
2026-04-25 12:02 39.95682 40.81900 36101 ft 405 kts 266°
2026-04-25 12:03 39.95680 40.74297 36100 ft 405 kts 266°
2026-04-25 12:03 39.95663 40.66647 36100 ft 405 kts 266°
2026-04-25 12:04 39.95622 40.59062 36102 ft 405 kts 266°
2026-04-25 12:04 39.95584 40.51714 36098 ft 405 kts 266°
2026-04-25 12:05 39.95545 40.44052 36089 ft 404 kts 266°
2026-04-25 12:05 39.95511 40.36525 36082 ft 405 kts 266°
2026-04-25 12:06 39.95470 40.28764 36073 ft 407 kts 265°
2026-04-25 12:06 39.95425 40.21426 36073 ft 406 kts 265°
2026-04-25 12:07 39.95375 40.14104 36073 ft 405 kts 265°
2026-04-25 12:07 39.95318 40.06487 36075 ft 404 kts 265°
2026-04-25 12:08 39.95263 39.98816 36074 ft 406 kts 266°
2026-04-25 12:08 39.95200 39.91273 36074 ft 405 kts 266°
2026-04-25 12:09 39.95107 39.83938 36074 ft 405 kts 265°
2026-04-25 12:09 39.95010 39.76608 36075 ft 406 kts 265°
2026-04-25 12:10 39.94921 39.69274 36075 ft 407 kts 265°
2026-04-25 12:10 39.94832 39.61681 36074 ft 407 kts 265°
2026-04-25 12:11 39.94732 39.53839 36076 ft 407 kts 265°
2026-04-25 12:11 39.94620 39.46211 36075 ft 408 kts 265°
2026-04-25 12:12 39.94523 39.38878 36072 ft 404 kts 265°
2026-04-25 12:12 39.94418 39.31596 36073 ft 402 kts 265°
2026-04-25 12:13 39.94307 39.24245 36076 ft 407 kts 265°
2026-04-25 12:13 39.94196 39.16861 36074 ft 408 kts 265°
2026-04-25 12:14 39.94088 39.09494 36075 ft 405 kts 265°
2026-04-25 12:14 39.93960 39.02211 36086 ft 405 kts 265°
2026-04-25 12:15 39.93833 38.94759 36095 ft 405 kts 265°
2026-04-25 12:15 39.93636 38.87323 36106 ft 408 kts 263°
2026-04-25 12:16 39.93153 38.79774 36110 ft 406 kts 262°
2026-04-25 12:16 39.92651 38.72310 36118 ft 406 kts 262°
2026-04-25 12:17 39.92139 38.64672 36126 ft 406 kts 262°
2026-04-25 12:17 39.91639 38.57233 36128 ft 406 kts 262°
2026-04-25 12:18 39.91145 38.49971 36128 ft 405 kts 262°
2026-04-25 12:18 39.90642 38.42646 36129 ft 406 kts 262°
2026-04-25 12:19 39.89884 38.31680 36129 ft 408 kts 261°
2026-04-25 12:20 39.89336 38.23972 36127 ft 405 kts 262°
2026-04-25 12:20 39.88788 38.16245 36128 ft 405 kts 261°
2026-04-25 12:21 39.88258 38.08839 36133 ft 407 kts 262°
2026-04-25 12:21 39.87717 38.01310 36139 ft 406 kts 262°
2026-04-25 12:22 39.87162 37.93644 36145 ft 403 kts 261°
2026-04-25 12:22 39.86584 37.86177 36151 ft 404 kts 261°
2026-04-25 12:23 39.86025 37.78862 36154 ft 407 kts 261°
2026-04-25 12:23 39.85463 37.71365 36154 ft 408 kts 261°
2026-04-25 12:24 39.84883 37.63589 36154 ft 407 kts 261°
2026-04-25 12:24 39.84337 37.56278 36154 ft 408 kts 261°
2026-04-25 12:25 39.83779 37.48956 36154 ft 404 kts 261°
2026-04-25 12:25 39.83229 37.41742 36154 ft 403 kts 261°
2026-04-25 12:26 39.82643 37.34444 36157 ft 405 kts 261°
2026-04-25 12:26 39.82052 37.27178 36155 ft 405 kts 261°
2026-04-25 12:27 39.81465 37.19882 36156 ft 406 kts 261°
2026-04-25 12:27 39.80841 37.12175 36154 ft 406 kts 262°
2026-04-25 12:28 39.80227 37.04562 36155 ft 407 kts 263°
2026-04-25 12:28 39.79529 36.97110 36152 ft 411 kts 258°
2026-04-25 12:29 39.77732 36.90024 36156 ft 415 kts 246°
2026-04-25 12:29 39.74674 36.83639 36154 ft 419 kts 233°
2026-04-25 12:30 39.70773 36.78025 36155 ft 420 kts 230°
2026-04-25 12:30 39.66767 36.72520 36155 ft 419 kts 230°
2026-04-25 12:31 39.62772 36.67036 36155 ft 420 kts 230°
2026-04-25 12:31 39.58777 36.61560 36155 ft 420 kts 230°
2026-04-25 12:32 39.54781 36.56086 36155 ft 420 kts 230°
2026-04-25 12:32 39.50747 36.50568 36155 ft 420 kts 229°
2026-04-25 12:33 39.46731 36.45114 36155 ft 419 kts 229°
2026-04-25 12:33 39.42728 36.39693 36155 ft 419 kts 229°
2026-04-25 12:34 39.38722 36.34266 36155 ft 420 kts 229°
2026-04-25 12:34 39.34482 36.28530 36151 ft 419 kts 229°
2026-04-25 12:35 39.30238 36.22792 36123 ft 419 kts 229°
2026-04-25 12:35 39.26193 36.17331 36085 ft 420 kts 229°
2026-04-25 12:36 39.22178 36.11916 36060 ft 420 kts 229°
2026-04-25 12:36 39.18122 36.06454 36046 ft 419 kts 229°
2026-04-25 12:37 39.14095 36.01076 36047 ft 420 kts 227°
2026-04-25 12:37 39.09678 35.95597 36047 ft 421 kts 227°
2026-04-25 12:38 39.05068 35.89905 36046 ft 420 kts 227°
2026-04-25 12:38 39.00727 35.84524 36047 ft 420 kts 226°
2026-04-25 12:39 38.96540 35.79326 36047 ft 419 kts 226°
2026-04-25 12:39 38.92355 35.74097 36047 ft 418 kts 226°
2026-04-25 12:40 38.88254 35.68805 36047 ft 419 kts 226°
2026-04-25 12:40 38.84126 35.63472 36046 ft 419 kts 226°
2026-04-25 12:41 38.80035 35.58192 36047 ft 419 kts 226°
2026-04-25 12:41 38.75907 35.52877 36048 ft 420 kts 226°
2026-04-25 12:42 38.71793 35.47593 36046 ft 419 kts 226°
2026-04-25 12:42 38.67677 35.42315 36047 ft 419 kts 226°
2026-04-25 12:43 38.63570 35.37058 36047 ft 418 kts 226°
2026-04-25 12:43 38.57414 35.29198 36048 ft 420 kts 226°
2026-04-25 12:44 38.53272 35.23948 36047 ft 421 kts 224°
2026-04-25 12:45 38.46648 35.16683 36047 ft 420 kts 221°
2026-04-25 12:45 38.39919 35.09473 36047 ft 420 kts 221°
2026-04-25 12:46 38.35564 35.04602 36047 ft 420 kts 224°
2026-04-25 12:46 38.31294 34.99488 36046 ft 421 kts 225°
2026-04-25 12:47 38.27037 34.94369 36046 ft 423 kts 225°
2026-04-25 12:47 38.22744 34.89202 36048 ft 426 kts 225°
2026-04-25 12:48 38.18415 34.83993 36046 ft 428 kts 225°
2026-04-25 12:48 38.14084 34.78791 36047 ft 429 kts 225°
2026-04-25 12:49 38.09426 34.73203 36047 ft 430 kts 225°
2026-04-25 12:49 38.05068 34.67984 36032 ft 430 kts 225°
2026-04-25 12:50 38.00732 34.62797 35994 ft 428 kts 225°
2026-04-25 12:50 37.96390 34.57614 35958 ft 428 kts 225°
2026-04-25 12:51 37.92067 34.52462 35922 ft 429 kts 225°
2026-04-25 12:51 37.87511 34.47049 35912 ft 430 kts 225°
2026-04-25 12:52 37.82862 34.41548 35911 ft 429 kts 225°
2026-04-25 12:52 37.78128 34.35939 35911 ft 428 kts 225°
2026-04-25 12:53 37.73541 34.30510 35912 ft 428 kts 224°
2026-04-25 12:53 37.69073 34.25225 35912 ft 430 kts 224°
2026-04-25 12:54 37.64756 34.20123 35912 ft 428 kts 224°
2026-04-25 12:54 37.60256 34.14815 35912 ft 429 kts 224°
2026-04-25 12:55 37.56496 34.10386 35912 ft 429 kts 224°
2026-04-25 12:55 37.51165 34.04115 35912 ft 429 kts 224°
2026-04-25 12:56 37.46542 33.98686 35912 ft 428 kts 224°
2026-04-25 12:56 37.42034 33.93421 35912 ft 429 kts 224°
2026-04-25 12:57 37.37499 33.88167 35912 ft 429 kts 224°
2026-04-25 12:57 37.32795 33.82710 35913 ft 429 kts 224°
2026-04-25 12:58 37.28121 33.77284 35923 ft 429 kts 224°
2026-04-25 12:58 37.23669 33.72122 35936 ft 429 kts 224°
2026-04-25 12:59 37.19289 33.67047 35948 ft 430 kts 224°
2026-04-25 12:59 37.14904 33.61972 35958 ft 429 kts 224°
2026-04-25 13:00 37.11279 33.57782 35966 ft 429 kts 224°
2026-04-25 13:00 37.06157 33.51871 35966 ft 428 kts 224°
2026-04-25 13:01 37.01819 33.46872 35965 ft 426 kts 224°
2026-04-25 13:01 36.97467 33.41868 35966 ft 425 kts 224°
2026-04-25 13:02 36.93131 33.36640 35964 ft 424 kts 230°
2026-04-25 13:02 36.89572 33.30022 35965 ft 424 kts 244°
2026-04-25 13:03 36.87781 33.22437 35967 ft 427 kts 260°
2026-04-25 13:03 36.87293 33.14373 35939 ft 428 kts 266°
2026-04-25 13:04 36.87280 33.06467 35939 ft 429 kts 269°
2026-04-25 13:04 36.87410 32.99052 35939 ft 431 kts 269°
2026-04-25 13:05 36.87602 32.91533 35938 ft 433 kts 270°
2026-04-25 13:05 36.87812 32.83985 35938 ft 433 kts 270°
2026-04-25 13:06 36.88030 32.76485 35939 ft 434 kts 270°
2026-04-25 13:06 36.88258 32.68725 35937 ft 433 kts 270°
2026-04-25 13:07 36.88491 32.60641 35938 ft 431 kts 270°
2026-04-25 13:07 36.88717 32.52773 35939 ft 432 kts 270°
2026-04-25 13:08 36.88923 32.45303 35939 ft 434 kts 270°
2026-04-25 13:08 36.89099 32.37793 35938 ft 433 kts 269°
2026-04-25 13:09 36.89282 32.30283 35938 ft 432 kts 269°
2026-04-25 13:09 36.89475 32.22600 35939 ft 432 kts 269°
2026-04-25 13:10 36.89683 32.14404 35939 ft 433 kts 269°
2026-04-25 13:10 36.89878 32.06255 35937 ft 431 kts 267°
2026-04-25 13:11 36.89589 32.02551 35936 ft 428 kts 256°
2026-04-25 13:11 36.88763 31.99030 35941 ft 426 kts 246°
2026-04-25 13:11 36.85705 31.92727 35939 ft 424 kts 228°
2026-04-25 13:12 36.81311 31.87881 35942 ft 425 kts 219°
2026-04-25 13:12 36.77439 31.84077 35938 ft 426 kts 218°
2026-04-25 13:13 36.71476 31.78280 35938 ft 425 kts 218°
2026-04-25 13:13 36.66230 31.73227 35939 ft 425 kts 218°
2026-04-25 13:14 36.61502 31.68675 35939 ft 425 kts 218°
2026-04-25 13:14 36.57088 31.63225 35943 ft 425 kts 236°
2026-04-25 13:15 36.55603 31.59563 35947 ft 427 kts 250°
2026-04-25 13:15 36.54919 31.55697 35954 ft 429 kts 262°
2026-04-25 13:15 36.54763 31.47663 35960 ft 432 kts 270°
2026-04-25 13:16 36.55083 31.39815 35965 ft 434 kts 271°
2026-04-25 13:16 36.55993 31.31598 35960 ft 438 kts 287°
2026-04-25 13:17 36.57508 31.27823 35968 ft 444 kts 301°
2026-04-25 13:17 36.59714 31.24664 35966 ft 451 kts 315°
2026-04-25 13:17 36.62547 31.22213 35967 ft 458 kts 330°
2026-04-25 13:17 36.65847 31.20660 35966 ft 464 kts 344°
2026-04-25 13:18 36.69413 31.20144 35966 ft 469 kts 359°
2026-04-25 13:18 36.72794 31.20655 35966 ft 473 kts 12°
2026-04-25 13:18 36.75853 31.22003 35967 ft 475 kts 24°
2026-04-25 13:18 36.78807 31.23849 35969 ft 476 kts 25°
2026-04-25 13:19 36.84974 31.26780 35965 ft 472 kts 13°
2026-04-25 13:19 36.90602 31.28253 35967 ft 471 kts
2026-04-25 13:20 36.98124 31.29853 35966 ft 471 kts
2026-04-25 13:20 37.05139 31.31066 35966 ft 472 kts
2026-04-25 13:21 37.11664 31.31665 35961 ft 469 kts 351°
2026-04-25 13:21 37.14836 31.30851 35967 ft 465 kts 338°
2026-04-25 13:21 37.18046 31.28981 35966 ft 460 kts 324°
2026-04-25 13:22 37.20713 31.26282 35966 ft 454 kts 310°
2026-04-25 13:22 37.22805 31.22777 35966 ft 447 kts 295°
2026-04-25 13:23 37.28585 31.13041 35966 ft 458 kts 323°
2026-04-25 13:23 37.31392 31.11154 35966 ft 463 kts 335°
2026-04-25 13:23 37.34532 31.10066 35965 ft 468 kts 349°
2026-04-25 13:23 37.37980 31.09881 35966 ft 473 kts
2026-04-25 13:24 37.41599 31.10775 35967 ft 477 kts 17°
2026-04-25 13:24 37.44953 31.12733 35966 ft 479 kts 32°
2026-04-25 13:24 37.47877 31.15507 35974 ft 479 kts 40°
2026-04-25 13:25 37.53105 31.20965 35963 ft 477 kts 35°
2026-04-25 13:25 37.55958 31.23050 35962 ft 474 kts 22°
2026-04-25 13:25 37.59081 31.24312 35967 ft 472 kts
2026-04-25 13:25 37.62451 31.24690 35969 ft 470 kts 355°
2026-04-25 13:26 37.66002 31.24034 35978 ft 466 kts 341°
2026-04-25 13:26 37.69336 31.22298 35989 ft 461 kts 326°
2026-04-25 13:26 37.72150 31.19657 36001 ft 455 kts 312°
2026-04-25 13:26 37.74304 31.16321 36012 ft 448 kts 297°
2026-04-25 13:27 37.75733 31.12417 36018 ft 440 kts 283°
2026-04-25 13:27 37.76317 31.08255 36020 ft 432 kts 269°
2026-04-25 13:27 37.76027 31.04105 36020 ft 424 kts 254°
2026-04-25 13:27 37.74922 31.00333 36019 ft 418 kts 240°
2026-04-25 13:28 37.73259 30.97339 36019 ft 416 kts 227°
2026-04-25 13:28 37.68314 30.93254 36020 ft 419 kts 200°
2026-04-25 13:28 37.65209 30.92492 36020 ft 424 kts 186°
2026-04-25 13:29 37.61982 30.92785 36020 ft 431 kts 171°
2026-04-25 13:29 37.55776 30.95417 36010 ft 437 kts 163°
2026-04-25 13:30 37.47251 30.99583 35980 ft 437 kts 162°
2026-04-25 13:31 37.38771 31.03726 35966 ft 436 kts 162°
2026-04-25 13:31 37.35944 31.05104 35812 ft 434 kts 162°
2026-04-25 13:31 37.33163 31.06461 35186 ft 431 kts 162°
2026-04-25 13:31 37.30080 31.07962 34168 ft 436 kts 162°
2026-04-25 13:32 37.26959 31.09479 33153 ft 438 kts 162°
2026-04-25 13:32 37.23830 31.10995 32160 ft 440 kts 163°
2026-04-25 13:32 37.20655 31.11843 31314 ft 430 kts 181°
2026-04-25 13:32 37.17719 31.11435 30616 ft 421 kts 197°
2026-04-25 13:33 37.15080 31.09968 29780 ft 419 kts 214°
2026-04-25 13:33 37.12964 31.07563 29090 ft 415 kts 231°
2026-04-25 13:33 37.11562 31.04465 28460 ft 412 kts 248°
2026-04-25 13:33 37.11087 31.02127 28031 ft 412 kts 260°
2026-04-25 13:34 37.11395 30.97040 27003 ft 405 kts 283°
2026-04-25 13:34 37.12532 30.93703 26208 ft 403 kts 297°
2026-04-25 13:34 37.14268 30.90811 25398 ft 403 kts 310°
2026-04-25 13:34 37.16625 30.88369 24541 ft 402 kts 324°
2026-04-25 13:35 37.19400 30.86768 23686 ft 402 kts 341°
2026-04-25 13:35 37.22452 30.86280 22832 ft 402 kts
2026-04-25 13:35 37.25447 30.86795 22041 ft 397 kts 11°
2026-04-25 13:35 37.28375 30.87694 21262 ft 391 kts 14°
2026-04-25 13:36 37.31255 30.88719 20470 ft 386 kts 15°
2026-04-25 13:36 37.34035 30.89736 19703 ft 381 kts 15°
2026-04-25 13:36 37.36767 30.90775 19292 ft 370 kts 18°
2026-04-25 13:36 37.39217 30.91844 19315 ft 372 kts 17°
2026-04-25 13:37 37.41737 30.92647 19307 ft 377 kts
2026-04-25 13:37 37.44333 30.93114 19305 ft 378 kts
2026-04-25 13:37 37.46948 30.93468 19313 ft 377 kts
2026-04-25 13:37 37.49737 30.93876 19328 ft 376 kts
2026-04-25 13:38 37.52594 30.94322 19343 ft 376 kts
2026-04-25 13:38 37.55420 30.94919 19346 ft 377 kts 18°
2026-04-25 13:38 37.57942 30.96618 19371 ft 376 kts 41°
2026-04-25 13:38 37.59694 30.99195 19379 ft 373 kts 63°
2026-04-25 13:39 37.60593 31.02187 19377 ft 367 kts 81°
2026-04-25 13:39 37.60789 31.05358 19363 ft 361 kts 98°
2026-04-25 13:39 37.60265 31.08431 19351 ft 353 kts 115°
2026-04-25 13:39 37.59081 31.11085 19341 ft 347 kts 132°
2026-04-25 13:40 37.57344 31.13179 19330 ft 342 kts 148°
2026-04-25 13:40 37.55257 31.14515 19322 ft 339 kts 164°
2026-04-25 13:40 37.52967 31.15031 19317 ft 336 kts 180°
2026-04-25 13:40 37.50612 31.14883 19041 ft 342 kts 186°
2026-04-25 13:41 37.48270 31.14522 18301 ft 339 kts 188°
2026-04-25 13:41 37.45975 31.14132 17573 ft 332 kts 188°
2026-04-25 13:41 37.43722 31.13761 16849 ft 326 kts 187°
2026-04-25 13:41 37.41505 31.13412 16124 ft 320 kts 187°
2026-04-25 13:42 37.39303 31.13078 15393 ft 315 kts 187°
2026-04-25 13:42 37.37168 31.12762 14674 ft 311 kts 187°
2026-04-25 13:42 37.34829 31.12422 13875 ft 307 kts 187°
2026-04-25 13:42 37.32516 31.12089 13074 ft 303 kts 187°
2026-04-25 13:43 37.30414 31.11193 12272 ft 301 kts 215°
2026-04-25 13:43 37.29031 31.09305 11578 ft 300 kts 234°
2026-04-25 13:43 37.28193 31.06934 10841 ft 303 kts 259°
2026-04-25 13:43 37.28194 31.04288 10132 ft 304 kts 274°
2026-04-25 13:44 37.28806 31.01783 9390 ft 308 kts 301°
2026-04-25 13:44 37.30358 30.99995 8887 ft 303 kts 333°
2026-04-25 13:44 37.32371 30.99388 8420 ft 296 kts 358°
2026-04-25 13:44 37.34389 30.99541 8016 ft 287 kts
2026-04-25 13:45 37.36321 30.99874 7868 ft 270 kts
2026-04-25 13:45 37.38306 31.00191 7786 ft 264 kts
2026-04-25 13:45 37.40276 31.00464 7705 ft 262 kts
2026-04-25 13:45 37.42155 30.99976 7628 ft 257 kts 328°
2026-04-25 13:46 37.43514 30.98343 7601 ft 256 kts 296°
2026-04-25 13:46 37.43993 30.96139 7513 ft 245 kts 267°
2026-04-25 13:46 37.43632 30.93932 7426 ft 240 kts 243°
2026-04-25 13:46 37.42713 30.92235 7356 ft 238 kts 222°
2026-04-25 13:47 37.41355 30.91035 7313 ft 235 kts 202°
2026-04-25 13:47 37.39831 30.90366 7279 ft 236 kts 197°
2026-04-25 13:47 37.38269 30.89702 7240 ft 235 kts 198°
2026-04-25 13:47 37.36702 30.89033 7200 ft 234 kts 198°
2026-04-25 13:48 37.35086 30.88350 7157 ft 234 kts 198°
2026-04-25 13:48 37.33534 30.87684 7117 ft 234 kts 198°
2026-04-25 13:48 37.32003 30.87050 7080 ft 234 kts 198°
2026-04-25 13:48 37.30443 30.86476 7040 ft 234 kts 191°
2026-04-25 13:49 37.28763 30.86078 7001 ft 234 kts 189°
2026-04-25 13:49 37.27146 30.85713 6962 ft 234 kts 189°
2026-04-25 13:49 37.25541 30.85339 6924 ft 234 kts 190°
2026-04-25 13:49 37.23956 30.84985 6908 ft 232 kts 189°
2026-04-25 13:50 37.22347 30.84641 6878 ft 233 kts 189°
2026-04-25 13:50 37.20771 30.84289 6785 ft 235 kts 190°
2026-04-25 13:50 37.19156 30.83934 6459 ft 234 kts 190°
2026-04-25 13:50 37.17506 30.83580 6036 ft 232 kts 189°
2026-04-25 13:51 37.15782 30.83202 5635 ft 228 kts 189°
2026-04-25 13:51 37.14101 30.82838 5096 ft 229 kts 189°
2026-04-25 13:51 37.12433 30.82487 4504 ft 223 kts 189°
2026-04-25 13:51 37.10802 30.82141 3923 ft 218 kts 190°
2026-04-25 13:52 37.09175 30.81809 3358 ft 211 kts 189°
2026-04-25 13:52 37.07645 30.81538 2963 ft 197 kts 186°
2026-04-25 13:52 37.06261 30.81381 2988 ft 173 kts 186°
2026-04-25 13:52 37.04958 30.81238 2974 ft 169 kts 186°
2026-04-25 13:53 37.03674 30.81097 2609 ft 168 kts 186°
2026-04-25 13:53 37.02432 30.80961 2368 ft 163 kts 185°
2026-04-25 13:53 37.01241 30.80558 2148 ft 162 kts 199°
2026-04-25 13:53 37.00123 30.80063 1898 ft 162 kts 200°
2026-04-25 13:54 36.99057 30.79909 1546 ft 151 kts 175°
2026-04-25 13:54 36.98068 30.80053 1443 ft 139 kts 174°
2026-04-25 13:54 36.97104 30.80073 1339 ft 140 kts 181°
2026-04-25 13:54 36.96128 30.80047 1039 ft 139 kts 181°
2026-04-25 13:55 36.95179 30.79977 807 ft 135 kts 185°
2026-04-25 13:55 36.94248 30.79845 778 ft 137 kts 186°
2026-04-25 13:55 36.93286 30.79716 588 ft 141 kts 187°
2026-04-25 13:55 36.92306 30.79588 371 ft 138 kts 187°
2026-04-25 13:56 36.91313 30.79447 195 ft 137 kts 186°
2026-04-25 13:56 36.90507 30.79333 186 ft 87 kts 186°
2026-04-25 13:56 36.90082 30.79276 185 ft 41 kts 186°
2026-04-25 13:56 36.89820 30.79238 185 ft 32 kts 186°
2026-04-25 13:57 36.89628 30.79224 185 ft 21 kts 167°
2026-04-25 13:57 36.89545 30.79258 185 ft 17 kts 159°
2026-04-25 13:57 36.89448 30.79310 185 ft 0 kts 156°
2026-04-25 13:57 36.89445 30.79312 185 ft 0 kts 156°
2026-04-25 13:58 36.89443 30.79313 185 ft 0 kts 156°
2026-04-25 13:58 36.89437 30.79316 185 ft 3 kts 156°
2026-04-25 13:58 36.89394 30.79356 185 ft 10 kts 111°
2026-04-25 13:58 36.89460 30.79410 185 ft 15 kts
2026-04-25 13:59 36.89583 30.79426 185 ft 17 kts
2026-04-25 13:59 36.89713 30.79443 185 ft 15 kts
2026-04-25 13:59 36.89820 30.79459 185 ft 13 kts
2026-04-25 13:59 36.89854 30.79525 185 ft 8 kts 92°
2026-04-25 14:00 36.89845 30.79626 185 ft 15 kts 97°
2026-04-25 14:00 36.89833 30.79755 185 ft 12 kts 99°
2026-04-25 14:00 36.89824 30.79852 185 ft 10 kts 95°
2026-04-25 14:00 36.89824 30.79928 185 ft 7 kts 81°
2026-04-25 14:01 36.89827 30.79984 185 ft 5 kts 89°
2026-04-25 14:01 36.89827 30.80000 185 ft 0 kts 88°
2026-04-25 14:01 36.89827 30.80009 185 ft 0 kts 88°